Wind_Speed
25 24 22 21 21 21 20 19 18 17 17 16 16 15 14 14 13 12 11 11 10 9 9 10 9 9 9 9 9 9 9 9 10 10 10 11 11 13 14 16 17 18 19 19
25 25 23 22 21 21 21 20 19 18 18 17 16 15 15 14 14 14 13 12 12 11 11 11 10 10 10 10 10 10 11 11 11 11 10 11 12 12 14 16 18 19 20 20
25 25 24 24 23 22 21 19 19 19 18 17 16 15 15 15 15 15 14 14 14 14 13 12 12 11 11 11 11 12 12 12 11 11 11 12 12 12 14 15 17 19 21 22
26 26 25 25 24 23 23 22 20 20 19 18 17 17 16 15 15 16 15 14 14 15 15 14 14 14 14 13 13 13 13 13 14 13 13 13 13 14 13 14 15 17 19 20
26 25 26 27 24 23 23 22 20 20 20 20 18 18 17 16 16 16 16 16 16 16 16 16 15 15 16 15 15 15 15 15 14 15 14 15 15 14 14 14 15 17 19 20
28 25 25 27 24 24 24 23 22 21 20 20 20 20 19 18 18 18 18 18 19 18 18 18 18 17 17 17 17 17 17 16 16 15 15 16 16 15 15 15 16 17 18 20
28 27 27 27 24 24 25 24 23 22 22 21 21 21 20 20 20 20 20 20 20 21 21 20 20 19 19 18 18 18 18 18 18 17 17 18 18 17 18 18 18 19 20 21
29 27 28 27 25 26 25 24 24 23 23 22 22 22 21 21 22 21 21 21 21 21 21 21 21 21 20 20 19 19 19 20 20 19 19 19 19 19 19 19 20 20 20 20
31 30 29 27 26 26 25 25 25 24 23 23 23 23 22 23 22 21 21 21 21 21 21 22 22 22 21 21 21 21 21 21 22 22 21 21 21 20 20 20 20 21 21 22
31 31 29 28 28 28 27 27 27 26 25 25 24 23 23 23 22 22 21 21 20 20 21 22 22 22 22 23 23 23 22 22 22 23 23 23 23 22 22 21 21 21 21 21
30 30 30 30 29 28 28 28 28 27 26 25 25 24 23 22 22 22 21 21 21 22 22 22 22 22 23 23 23 23 23 22 22 23 23 23 23 23 23 22 23 22 22 23
30 29 29 28 28 28 28 28 27 27 26 26 25 24 24 23 23 23 22 22 22 22 22 23 23 23 23 23 22 23 23 23 23 24 23 24 24 24 23 23 23 23 24 25
28 28 28 28 27 27 27 27 26 26 26 26 25 25 24 24 24 23 23 22 22 22 22 22 22 22 23 23 23 23 23 24 24 25 25 26 26 26 25 25 26 26 28 28
27 28 28 27 27 27 26 25 25 25 25 25 25 24 23 23 23 22 21 21 20 20 20 20 21 21 21 21 21 22 22 23 23 23 24 24 24 23 23 25 26 27 28 29
27 27 27 27 27 26 26 25 24 24 24 23 23 22 21 21 20 20 19 19 19 19 19 19 19 20 20 19 20 20 21 21 21 21 22 22 22 22 23 25 25 26 27 28
25 25 25 26 26 25 25 24 24 24 23 22 22 22 21 21 20 19 18 18 18 18 18 18 18 18 18 18 19 19 19 19 20 20 20 20 21 22 23 24 25 26 27 28
24 24 23 23 24 24 24 24 23 22 21 21 21 20 20 19 19 19 18 18 17 17 16 16 15 15 16 17 17 18 18 19 19 20 20 21 22 23 24 25 26 27 27 27
24 24 24 23 23 23 23 23 23 22 22 21 21 19 18 18 18 18 17 17 16 16 15 15 15 15 16 16 17 17 18 19 20 20 21 22 23 24 24 25 26 27 27 27
24 23 23 22 21 22 22 22 22 22 22 21 20 20 18 17 17 16 16 16 16 15 15 15 15 15 15 16 17 17 18 19 20 21 22 23 23 24 24 25 26 27 28 29
22 22 21 21 21 21 21 21 20 20 20 19 19 19 18 16 16 16 16 15 15 16 16 15 15 15 15 16 17 18 19 20 20 21 21 21 22 23 24 25 26 27 28 29
20 20 20 20 20 19 19 19 18 18 19 19 19 17 16 15 15 15 15 15 15 15 15 15 15 16 17 17 18 18 19 20 20 21 22 23 24 25 26 27 27 28 29 29
19 19 19 19 19 18 18 18 17 17 17 17 17 15 15 15 15 15 15 14 14 14 15 16 16 17 18 18 19 19 19 20 21 22 23 24 25 25 26 27 27 27 27 27
17 18 18 18 18 17 17 17 17 16 15 15 15 15 15 15 15 14 14 14 14 15 15 16 16 17 18 19 19 20 20 21 22 23 24 24 25 25 26 26 26 26 26 26
16 16 16 17 16 16 16 16 16 15 15 14 14 14 14 14 14 14 14 14 14 15 15 16 17 17 18 19 20 21 21 22 23 24 24 25 25 26 26 26 25 25 25 25
16 16 16 16 16 16 15 15 14 14 14 14 13 13 13 13 13 13 13 14 14 14 15 15 16 18 19 19 20 21 22 22 23 24 25 25 25 25 25 25 25 25 25 25
16 15 16 16 16 15 14 13 13 13 13 13 12 12 12 12 12 12 12 13 13 14 15 16 17 18 19 20 21 22 22 23 24 25 25 25 25 25 25 25 24 25 25 25
14 15 15 15 14 14 13 13 12 12 12 11 11 11 12 11 11 12 12 13 15 15 16 17 19 20 21 21 22 23 24 24 24 24 24 24 25 25 24 24 24 24 24 24
Wind_Direction
219 224 228 229 229 230 229 229 233 241 242 242 242 245 250 254 256 256 256 257 259 264 267 271 276 279 280 281 285 285 283 284 281 275 270 269 261 250 244 242 241 238 239 241
222 224 226 227 228 229 231 231 233 237 240 239 242 244 246 250 251 252 254 254 256 260 267 270 275 277 275 278 281 284 283 283 283 279 274 270 266 258 249 246 245 243 243 244
222 223 226 229 229 231 234 235 235 236 237 240 241 241 246 248 248 251 253 253 256 260 262 267 273 275 275 274 275 279 281 281 279 276 276 275 270 260 253 249 246 244 243 244
220 223 225 230 230 231 233 235 236 236 235 236 239 241 246 248 248 249 252 254 255 259 263 266 270 273 275 273 272 277 277 279 278 274 275 275 274 271 261 252 248 248 247 246
221 225 228 232 231 231 233 235 234 234 234 235 239 244 246 247 249 252 252 253 256 260 265 268 270 272 273 272 272 276 275 276 275 272 273 272 275 272 264 259 256 253 251 250
222 223 231 236 230 230 232 234 232 234 236 237 240 244 246 248 251 252 254 255 255 258 262 265 270 272 272 269 270 271 272 273 274 271 273 274 273 272 269 266 262 262 262 257
226 227 232 233 228 228 230 232 232 235 237 238 240 243 245 247 251 254 256 257 256 257 259 264 267 267 267 266 268 269 271 273 272 270 270 270 271 270 269 266 267 264 264 262
226 229 234 232 228 228 230 231 233 236 238 240 242 244 245 248 251 253 254 257 257 257 259 262 264 266 265 265 267 267 269 271 270 269 271 271 271 270 269 268 268 267 267 266
227 229 233 233 231 232 232 233 234 237 239 242 244 246 248 249 249 251 255 257 257 259 259 262 264 264 264 264 265 267 268 268 268 268 269 270 272 273 272 272 273 271 271 272
230 232 233 234 234 235 235 235 235 237 240 243 246 249 249 248 249 252 255 256 258 259 260 262 262 262 261 263 264 265 266 266 266 268 268 269 273 272 273 276 278 277 276 275
229 231 232 234 234 234 234 235 236 238 242 246 248 249 247 247 249 251 253 256 258 259 259 261 262 262 262 262 263 264 266 267 270 269 271 273 272 273 274 278 278 276 275 275
227 229 229 231 233 233 233 234 236 240 243 245 246 246 247 248 250 251 254 257 258 259 260 261 262 262 263 264 264 266 267 269 269 269 271 272 273 274 273 274 275 278 279 279
225 226 228 229 231 232 232 235 238 241 242 244 244 246 247 248 248 251 255 256 258 259 261 261 262 263 264 265 265 266 266 268 270 270 270 272 273 272 272 273 274 277 279 282
223 225 226 227 229 231 232 234 237 239 240 241 242 244 245 245 245 249 252 254 257 259 260 262 263 262 264 265 267 267 267 270 273 272 272 273 273 272 272 276 279 281 282 284
222 223 224 225 227 229 231 234 235 236 238 239 241 240 239 240 242 246 251 253 256 258 260 262 263 263 264 265 268 269 268 270 272 273 274 274 274 275 278 280 283 285 287 287
218 219 220 221 222 224 227 229 231 232 235 236 237 238 239 240 242 246 250 255 256 258 259 260 262 264 265 266 268 268 269 271 272 274 275 276 278 281 283 285 287 288 290 290
215 216 217 219 221 224 225 227 228 231 232 234 235 236 237 238 242 247 250 252 253 256 257 259 263 265 266 267 267 267 270 272 274 275 277 279 281 283 285 287 289 292 293 295
215 216 217 218 220 222 222 222 224 225 228 231 232 232 234 236 241 245 248 250 252 255 257 260 264 267 266 267 269 270 271 273 276 278 281 283 284 286 287 289 291 293 295 297
213 214 215 214 215 217 219 221 222 225 228 230 231 231 234 237 240 244 249 250 251 254 258 263 266 270 270 270 273 273 275 275 277 281 283 284 286 288 290 292 294 295 297 299
210 211 211 212 214 215 215 217 220 224 226 229 229 229 233 236 241 245 249 251 253 255 260 263 266 269 273 275 275 275 276 278 281 285 287 289 291 292 293 295 297 298 299 301
205 207 209 211 211 211 213 215 217 222 223 225 227 229 231 234 240 245 250 253 255 259 261 264 267 271 274 276 278 279 282 285 287 290 292 292 293 295 295 297 298 300 301 302
203 205 207 207 208 209 212 214 217 218 219 220 222 227 232 238 243 248 251 254 258 262 265 269 273 275 276 278 280 282 285 287 290 292 293 294 294 296 298 299 300 301 302 302
199 202 203 203 203 205 209 211 213 215 216 220 225 230 233 237 241 247 254 257 261 266 270 273 277 279 280 281 283 285 287 289 291 292 293 294 296 298 300 301 301 301 302 303
198 196 196 196 198 200 204 208 212 216 218 222 226 230 233 237 243 251 258 262 266 270 274 277 279 281 282 283 285 287 288 290 291 293 294 296 298 299 300 300 301 302 302 303
193 194 196 197 198 200 205 209 213 216 221 224 227 234 239 244 254 259 261 266 270 273 276 279 282 285 286 288 289 290 291 293 293 294 295 296 298 299 299 300 300 301 301 303
186 190 192 194 195 199 203 208 215 220 224 228 234 241 247 255 262 265 268 270 273 277 281 284 288 291 293 294 293 293 293 293 294 295 296 296 297 298 299 300 300 300 300 301
187 189 190 192 195 201 208 215 222 228 233 240 245 249 255 259 263 267 272 276 280 284 288 292 294 296 296 296 295 295 295 295 295 295 294 294 295 296 297 298 299 299 300 300
Height
5807 5810 5813 5816 5819 5822 5825 5829 5832 5834 5834 5835 5835 5836 5837 5837 5837 5838 5838 5838 5838 5838 5838 5838 5837 5837 5836 5836 5835 5834 5834 5833 5832 5832 5831 5831 5831 5831 5832 5833 5834 5835 5837 5839
5801 5804 5808 5811 5814 5817 5820 5823 5826 5828 5830 5830 5831 5832 5833 5833 5834 5834 5835 5835 5836 5835 5835 5835 5835 5834 5833 5833 5833 5832 5831 5831 5830 5829 5829 5828 5828 5828 5828 5829 5830 5831 5832 5834
5797 5800 5803 5806 5809 5812 5815 5818 5821 5823 5825 5826 5827 5828 5829 5830 5830 5831 5831 5832 5832 5832 5832 5832 5832 5831 5831 5830 5830 5830 5829 5828 5828 5827 5827 5826 5825 5824 5824 5824 5825 5826 5827 5829
5792 5795 5799 5803 5804 5807 5810 5813 5815 5817 5819 5821 5822 5823 5824 5825 5826 5827 5827 5828 5828 5828 5828 5828 5828 5828 5828 5827 5827 5827 5826 5826 5825 5825 5824 5823 5822 5821 5820 5820 5820 5821 5823 5823
5786 5790 5793 5795 5799 5802 5805 5807 5810 5812 5814 5816 5817 5818 5819 5821 5822 5822 5823 5824 5824 5824 5824 5824 5824 5824 5824 5824 5823 5823 5823 5822 5821 5821 5821 5820 5819 5818 5818 5817 5817 5817 5818 5819
5780 5785 5788 5790 5793 5796 5800 5802 5805 5807 5809 5811 5812 5814 5815 5816 5817 5818 5818 5819 5819 5819 5820 5820 5820 5820 5820 5820 5820 5819 5819 5818 5818 5818 5817 5817 5816 5816 5815 5814 5814 5814 5814 5814
5773 5778 5781 5783 5787 5791 5795 5797 5799 5801 5803 5805 5807 5809 5810 5810 5811 5812 5813 5813 5814 5815 5815 5815 5815 5815 5815 5815 5815 5815 5815 5814 5813 5813 5813 5813 5812 5812 5811 5811 5810 5809 5809 5808
5767 5771 5775 5777 5781 5784 5787 5790 5792 5795 5797 5799 5801 5802 5804 5805 5805 5806 5807 5808 5808 5809 5809 5809 5810 5810 5810 5810 5810 5810 5810 5810 5809 5809 5809 5808 5808 5807 5807 5806 5806 5805 5804 5804
5760 5764 5767 5770 5774 5777 5780 5783 5786 5788 5791 5792 5794 5796 5797 5798 5799 5800 5801 5802 5802 5803 5803 5804 5804 5804 5805 5805 5805 5805 5805 5805 5804 5804 5804 5803 5803 5802 5802 5801 5801 5800 5799 5799
5752 5756 5760 5763 5767 5770 5773 5776 5779 5782 5784 5786 5788 5790 5791 5792 5793 5794 5795 5796 5796 5797 5797 5798 5798 5798 5799 5799 5799 5799 5799 5799 5799 5798 5798 5798 5797 5797 5797 5796 5795 5794 5794 5793
5745 5749 5752 5756 5759 5763 5766 5769 5772 5775 5777 5779 5781 5783 5784 5786 5787 5788 5789 5790 5791 5791 5792 5792 5792 5792 5793 5793 5793 5793 5793 5793 5792 5792 5792 5792 5791 5791 5790 5790 5789 5789 5788 5787
5738 5742 5746 5749 5752 5756 5759 5762 5765 5768 5770 5772 5774 5776 5778 5779 5781 5782 5783 5784 5784 5785 5785 5786 5786 5786 5787 5787 5787 5787 5787 5787 5787 5787 5786 5786 5786 5785 5784 5784 5783 5783 5782 5781
5731 5735 5738 5742 5745 5749 5752 5755 5758 5761 5763 5765 5767 5769 5771 5773 5774 5775 5776 5777 5778 5778 5779 5779 5780 5780 5780 5781 5781 5781 5781 5781 5781 5780 5780 5780 5779 5779 5778 5777 5776 5775 5774 5773
5724 5728 5732 5736 5739 5742 5745 5748 5751 5754 5756 5758 5760 5762 5764 5766 5768 5769 5770 5771 5772 5772 5773 5773 5774 5774 5775 5775 5775 5775 5775 5775 5774 5773 5773 5773 5772 5772 5771 5770 5769 5768 5766 5765
5718 5722 5726 5729 5733 5736 5739 5742 5745 5747 5750 5752 5754 5756 5758 5760 5762 5763 5765 5766 5766 5767 5768 5768 5768 5769 5769 5769 5769 5769 5769 5768 5768 5767 5767 5766 5766 5765 5764 5763 5762 5760 5759 5757
5712 5716 5720 5723 5726 5730 5733 5736 5739 5741 5744 5746 5748 5751 5753 5755 5757 5758 5759 5760 5761 5762 5762 5763 5763 5764 5764 5764 5764 5763 5763 5763 5762 5762 5761 5761 5760 5759 5758 5756 5755 5753 5752 5749
5707 5711 5715 5718 5721 5724 5727 5731 5734 5736 5739 5741 5743 5745 5748 5750 5751 5753 5754 5755 5756 5757 5757 5758 5759 5759 5759 5758 5758 5758 5758 5757 5757 5756 5756 5755 5754 5753 5751 5749 5748 5746 5744 5741
5703 5706 5710 5713 5716 5719 5722 5725 5729 5732 5734 5736 5738 5741 5743 5745 5746 5748 5749 5750 5751 5752 5753 5753 5753 5754 5754 5753 5753 5753 5752 5752 5751 5751 5750 5748 5747 5746 5744 5742 5740 5738 5736 5733
5698 5701 5705 5708 5711 5715 5718 5721 5724 5727 5729 5732 5734 5737 5739 5740 5742 5743 5744 5746 5747 5747 5748 5748 5748 5748 5748 5748 5748 5747 5747 5746 5745 5744 5743 5742 5740 5738 5737 5735 5733 5730 5728 5725
5694 5697 5701 5704 5707 5711 5714 5717 5720 5723 5725 5728 5730 5733 5734 5736 5737 5739 5740 5741 5742 5743 5743 5743 5743 5743 5743 5743 5742 5742 5741 5740 5739 5738 5736 5735 5733 5732 5730 5727 5725 5723 5720 5717
5691 5694 5697 5701 5704 5707 5710 5713 5716 5719 5721 5724 5726 5728 5730 5731 5733 5734 5736 5737 5737 5738 5738 5738 5738 5738 5738 5737 5737 5736 5735 5734 5733 5731 5730 5728 5726 5724 5722 5720 5717 5714 5711 5708
5688 5691 5695 5698 5701 5704 5707 5710 5713 5715 5717 5720 5722 5724 5726 5728 5729 5730 5731 5732 5732 5733 5733 5733 5733 5732 5732 5732 5731 5730 5728 5727 5726 5724 5723 5721 5719 5716 5714 5711 5709 5706 5703 5700
5686 5689 5692 5696 5699 5702 5705 5707 5710 5712 5715 5717 5719 5721 5723 5724 5725 5726 5727 5727 5728 5728 5728 5728 5727 5727 5726 5725 5724 5723 5722 5720 5719 5717 5715 5713 5711 5709 5706 5704 5701 5698 5695 5692
5684 5688 5691 5694 5697 5700 5702 5705 5707 5710 5712 5714 5716 5718 5719 5720 5721 5722 5722 5723 5723 5723 5723 5722 5722 5721 5720 5719 5718 5716 5715 5714 5712 5710 5708 5706 5704 5701 5699 5696 5693 5690 5687 5685
5683 5686 5689 5692 5695 5698 5701 5703 5705 5708 5710 5711 5713 5714 5716 5717 5717 5718 5718 5718 5718 5718 5718 5717 5716 5715 5714 5713 5711 5709 5708 5707 5705 5703 5700 5698 5696 5693 5691 5688 5685 5683 5680 5677
5683 5685 5688 5691 5694 5696 5699 5701 5703 5705 5707 5708 5710 5711 5712 5712 5713 5713 5713 5713 5713 5713 5712 5711 5710 5709 5707 5706 5704 5703 5701 5699 5697 5695 5693 5690 5688 5686 5683 5680 5678 5675 5672 5669
5682 5685 5687 5690 5692 5695 5697 5699 5701 5703 5704 5706 5707 5708 5708 5708 5709 5709 5709 5709 5708 5707 5706 5705 5704 5702 5701 5699 5697 5695 5693 5691 5689 5686 5684 5682 5680 5678 5675 5673 5670 5667 5665 5662